STARLINK-35707

Last updated on Fri Dec 19 2025 00:02:05 GMT+0000 (Coordinated Universal Time)

1 66533U 25265T 25352.66667824 .00030506 00000+0 73509-3 0 9995 2 66533 43.0008 19.6042 0001140 278.4627 121.5546 15.40680862 5946
UTC large
Height (km)
Speed (km/s)
/
Latitude / Longitude
Inclination (degrees)
Orbital Period (minutes)
Azimuth
Elevation
Range (km)
Doppler Factor

Next 0 passes for location: London (51.5072 / 0.1276)

Sorry there are no passes over London.